Location: Rounton
(54.4000°N, 1.3500°W)
Time: 13:40:32
(UTC+00:00)

Transit 2A - Pass Details

Date: 05 December 2021
Orbit: 591 x 967 km, 66.7° (Epoch: 21 January)

Event Time Altitude Azimuth Distance (km) Brightness Sun altitude
Rises 06:42:47 0° 314° (NW) 3,628 - -11.6°
Reaches altitude 10° 06:45:25 10° 320° (NW) 2,702 - -11.2°
Exits shadow 06:45:32 11° 320° (NW) 2,666 8.3 -11.2°
Maximum altitude 06:51:38 50° 35° (NE) 1,218 7.1 -10.4°
Drops below altitude 10° 06:57:46 10° 110° (ESE) 2,670 10.5 -9.6°
Sets 07:00:21 0° 116° (ESE) 3,582 11.9 -9.3°
